| time (UTC) | temp F | wind direction | speed MPH | gust MPH | rain 1hr in | rain 24hr in | rain mn in | humidity % | barometer mb |
| 20260903152047 | 71 | 250 | 1.0 | 8.0 | 0.00 | 0.37 | 0.00 | 83 | 1012.3 |
| 20260903151546 | 71 | 249 | 1.0 | 7.0 | 0.00 | 0.37 | 0.00 | 83 | 1012.4 |
| 20260903151046 | 71 | 270 | 2.0 | 7.0 | 0.00 | 0.37 | 0.00 | 83 | 1012.3 |
| 20260903150546 | 71 | 217 | 1.0 | 5.0 | 0.00 | 0.37 | 0.00 | 82 | 1012.3 |
| 20260903150046 | 71 | 201 | 0.0 | 6.0 | 0.00 | 0.37 | 0.00 | 82 | 1012.4 |
| 20260903145548 | 71 | 198 | 1.0 | 7.0 | 0.00 | 0.37 | 0.00 | 82 | 1012.3 |
| 20260903145045 | 71 | 240 | 0.0 | 7.0 | 0.00 | 0.37 | 0.00 | 82 | 1012.3 |
| 20260903144544 | 71 | 234 | 1.0 | 7.0 | 0.00 | 0.37 | 0.00 | 83 | 1012.2 |
| 20260903144046 | 71 | 221 | 0.0 | 3.0 | 0.00 | 0.37 | 0.00 | 83 | 1012.3 |
| 20260903143543 | 71 | 263 | 0.0 | 3.0 | 0.00 | 0.37 | 0.00 | 83 | 1012.3 |
| 20260903143100 | 71 | 266 | 0.0 | 3.0 | 0.00 | 0.37 | 0.00 | 83 | 1012.2 |
| 20260903142542 | 70 | 107 | 1.0 | 4.0 | 0.00 | 0.37 | 0.00 | 85 | 1012.2 |
| 20260903142041 | 70 | 177 | 1.0 | 4.0 | 0.00 | 0.37 | 0.00 | 85 | 1012.1 |
| 20260903141555 | 69 | 261 | 0.0 | 7.0 | 0.00 | 0.37 | 0.00 | 87 | 1012.2 |
| 20260903141038 | 69 | 230 | 1.0 | 7.0 | 0.00 | 0.37 | 0.00 | 87 | 1012.2 |
| 20260903140537 | 69 | 164 | 1.0 | 7.0 | 0.00 | 0.37 | 0.00 | 88 | 1012.0 |
| 20260903140039 | 68 | 206 | 2.0 | 5.0 | 0.00 | 0.37 | 0.00 | 88 | 1012.0 |
| 20260903135536 | 68 | 262 | 1.0 | 7.0 | 0.00 | 0.37 | 0.00 | 88 | 1012.1 |
| 20260903135037 | 68 | 228 | 2.0 | 7.0 | 0.00 | 0.37 | 0.00 | 88 | 1012.1 |
| 20260903134537 | 68 | 244 | 1.0 | 4.0 | 0.00 | 0.37 | 0.00 | 88 | 1012.0 |
| 20260903134035 | 68 | 207 | 0.0 | 4.0 | 0.00 | 0.37 | 0.00 | 88 | 1012.0 |
| 20260903133534 | 68 | 289 | 0.0 | 3.0 | 0.00 | 0.37 | 0.00 | 89 | 1012.1 |
| 20260903133035 | 68 | 273 | 0.0 | 4.0 | 0.00 | 0.37 | 0.00 | 89 | 1012.1 |
| 20260903132533 | 67 | 271 | 1.0 | 4.0 | 0.00 | 0.37 | 0.00 | 89 | 1012.1 |
| 20260903132033 | 67 | 333 | 0.0 | 5.0 | 0.00 | 0.37 | 0.00 | 89 | 1012.1 |
| 20260903131534 | 67 | 226 | 2.0 | 5.0 | 0.00 | 0.37 | 0.00 | 90 | 1012.1 |
| 20260903131033 | 67 | 254 | 1.0 | 8.0 | 0.00 | 0.37 | 0.00 | 90 | 1012.1 |
| 20260903130533 | 67 | 211 | 1.0 | 8.0 | 0.00 | 0.37 | 0.00 | 90 | 1012.2 |
| 20260903130036 | 67 | 191 | 3.0 | 5.0 | 0.00 | 0.37 | 0.00 | 90 | 1012.1 |
| 20260903125532 | 66 | 222 | 2.0 | 5.0 | 0.00 | 0.37 | 0.00 | 90 | 1012.2 |
| 20260903125031 | 66 | 188 | 2.0 | 6.0 | 0.00 | 0.37 | 0.00 | 90 | 1012.1 |
| 20260903124531 | 66 | 180 | 3.0 | 7.0 | 0.00 | 0.37 | 0.00 | 90 | 1011.9 |
| 20260903124031 | 66 | 190 | 2.0 | 4.0 | 0.00 | 0.37 | 0.00 | 90 | 1012.1 |
| 20260903123531 | 66 | 179 | 1.0 | 5.0 | 0.00 | 0.37 | 0.00 | 90 | 1012.2 |
| 20260903123034 | 66 | 193 | 2.0 | 5.0 | 0.00 | 0.37 | 0.00 | 90 | 1012.2 |
| 20260903122530 | 66 | 182 | 1.0 | 8.0 | 0.00 | 0.37 | 0.00 | 90 | 1012.2 |
| 20260903122030 | 66 | 189 | 1.0 | 8.0 | 0.00 | 0.37 | 0.00 | 90 | 1012.3 |
| 20260903121530 | 66 | 220 | 2.0 | 7.0 | 0.00 | 0.37 | 0.00 | 90 | 1012.2 |
| 20260903121029 | 66 | 205 | 2.0 | 6.0 | 0.00 | 0.37 | 0.00 | 90 | 1012.2 |
| 20260903120529 | 66 | 202 | 2.0 | 7.0 | 0.00 | 0.37 | 0.00 | 90 | 1012.2 |
| 20260903120029 | 66 | 211 | 3.0 | 7.0 | 0.00 | 0.37 | 0.00 | 90 | 1012.0 |
| 20260903115528 | 66 | 196 | 1.0 | 6.0 | 0.00 | 0.37 | 0.00 | 90 | 1012.0 |
| 20260903115028 | 66 | 196 | 4.0 | 9.0 | 0.00 | 0.37 | 0.00 | 90 | 1011.9 |
| 20260903114528 | 66 | 220 | 5.0 | 9.0 | 0.00 | 0.37 | 0.00 | 90 | 1011.9 |
| 20260903114028 | 66 | 206 | 4.0 | 9.0 | 0.00 | 0.37 | 0.00 | 90 | 1011.8 |
| 20260903113528 | 66 | 204 | 4.0 | 9.0 | 0.00 | 0.37 | 0.00 | 90 | 1011.9 |
| 20260903113030 | 66 | 219 | 1.0 | 6.0 | 0.00 | 0.37 | 0.00 | 90 | 1011.9 |
| 20260903112527 | 66 | 215 | 1.0 | 10.0 | 0.00 | 0.37 | 0.00 | 90 | 1011.9 |
| 20260903112032 | 66 | 200 | 3.0 | 10.0 | 0.00 | 0.37 | 0.00 | 90 | 1011.9 |
| 20260903111535 | 66 | 175 | 2.0 | 10.0 | 0.00 | 0.37 | 0.00 | 89 | 1012.0 |
| 20260903111026 | 66 | 198 | 4.0 | 9.0 | 0.00 | 0.37 | 0.00 | 89 | 1012.0 |
| 20260903110526 | 66 | 194 | 2.0 | 10.0 | 0.00 | 0.37 | 0.00 | 89 | 1012.0 |
| 20260903110025 | 66 | 215 | 5.0 | 11.0 | 0.00 | 0.37 | 0.00 | 89 | 1011.9 |
| 20260903105525 | 66 | 216 | 4.0 | 16.0 | 0.00 | 0.37 | 0.00 | 89 | 1011.9 |
| 20260903105025 | 66 | 249 | 3.0 | 16.0 | 0.00 | 0.37 | 0.00 | 89 | 1011.9 |
| 20260903104525 | 66 | 208 | 4.0 | 10.0 | 0.00 | 0.37 | 0.00 | 89 | 1011.9 |
| 20260903104025 | 66 | 201 | 3.0 | 10.0 | 0.00 | 0.37 | 0.00 | 88 | 1012.0 |
| 20260903103524 | 66 | 207 | 3.0 | 9.0 | 0.00 | 0.37 | 0.00 | 88 | 1012.0 |
| 20260903103027 | 66 | 209 | 3.0 | 11.0 | 0.00 | 0.37 | 0.00 | 88 | 1012.1 |
| 20260903102524 | 66 | 223 | 3.0 | 11.0 | 0.00 | 0.37 | 0.00 | 88 | 1012.0 |
| 20260903102022 | 66 | 205 | 2.0 | 6.0 | 0.00 | 0.37 | 0.00 | 88 | 1012.1 |
| 20260903101535 | 66 | 160 | 1.0 | 9.0 | 0.00 | 0.37 | 0.00 | 88 | 1011.9 |
| 20260903101022 | 66 | 288 | 2.0 | 9.0 | 0.00 | 0.37 | 0.00 | 88 | 1011.9 |
| 20260903100522 | 66 | 236 | 0.0 | 8.0 | 0.00 | 0.37 | 0.00 | 88 | 1011.8 |
| 20260903100021 | 66 | 188 | 2.0 | 8.0 | 0.00 | 0.37 | 0.00 | 89 | 1011.8 |
| 20260903095521 | 66 | 225 | 2.0 | 10.0 | 0.00 | 0.37 | 0.00 | 89 | 1011.8 |
| 20260903095120 | 66 | 207 | 3.0 | 10.0 | 0.00 | 0.37 | 0.00 | 89 | 1011.8 |
| 20260903094519 | 66 | 208 | 2.0 | 7.0 | 0.00 | 0.37 | 0.00 | 90 | 1011.7 |
| 20260903094017 | 66 | 250 | 1.0 | 6.0 | 0.00 | 0.37 | 0.00 | 90 | 1011.7 |
| 20260903093516 | 66 | 40 | 2.0 | 6.0 | 0.00 | 0.37 | 0.00 | 90 | 1011.7 |
| 20260903093015 | 66 | 174 | 2.0 | 6.0 | 0.00 | 0.37 | 0.00 | 90 | 1011.6 |
| 20260903092517 | 65 | 175 | 1.0 | 6.0 | 0.00 | 0.37 | 0.00 | 90 | 1011.7 |
| 20260903092014 | 65 | 192 | 0.0 | 6.0 | 0.00 | 0.37 | 0.00 | 90 | 1011.6 |
| 20260903091515 | 65 | 149 | 1.0 | 7.0 | 0.00 | 0.37 | 0.00 | 90 | 1011.7 |
| 20260903091012 | 65 | 206 | 1.0 | 7.0 | 0.00 | 0.37 | 0.00 | 90 | 1011.6 |
| 20260903090512 | 66 | 192 | 3.0 | 7.0 | 0.00 | 0.37 | 0.00 | 90 | 1011.5 |
| 20260903090011 | 66 | 213 | 2.0 | 7.0 | 0.00 | 0.37 | 0.00 | 90 | 1011.6 |
| 20260903085508 | 66 | 46 | 0.0 | 5.0 | 0.00 | 0.37 | 0.00 | 90 | 1011.7 |
| 20260903085007 | 66 | 228 | 1.0 | 8.0 | 0.00 | 0.37 | 0.00 | 90 | 1011.7 |
| 20260903084506 | 66 | 258 | 0.0 | 8.0 | 0.00 | 0.37 | 0.00 | 91 | 1011.7 |
| 20260903084005 | 66 | 210 | 1.0 | 8.0 | 0.00 | 0.37 | 0.00 | 91 | 1011.7 |
| 20260903083504 | 66 | 209 | 3.0 | 8.0 | 0.00 | 0.37 | 0.00 | 91 | 1011.7 |
| 20260903083002 | 66 | 211 | 2.0 | 7.0 | 0.00 | 0.37 | 0.00 | 91 | 1011.7 |
| 20260903082500 | 66 | 247 | 3.0 | 7.0 | 0.00 | 0.37 | 0.00 | 91 | 1011.8 |
| 20260903082100 | 66 | 207 | 4.0 | 8.0 | 0.00 | 0.37 | 0.00 | 91 | 1011.8 |
| 20260903081600 | 66 | 238 | 4.0 | 11.0 | 0.00 | 0.37 | 0.00 | 91 | 1011.8 |
| 20260903081100 | 66 | 247 | 3.0 | 11.0 | 0.00 | 0.37 | 0.00 | 91 | 1011.8 |
| 20260903080553 | 65 | 155 | 2.0 | 7.0 | 0.00 | 0.37 | 0.00 | 91 | 1011.8 |
| 20260903080054 | 65 | 222 | 2.0 | 6.0 | 0.00 | 0.37 | 0.00 | 91 | 1011.9 |
| 20260903075558 | 65 | 197 | 2.0 | 6.0 | 0.00 | 0.37 | 0.00 | 92 | 1011.9 |
| 20260903075053 | 65 | 188 | 2.0 | 6.0 | 0.00 | 0.37 | 0.00 | 92 | 1011.9 |
| 20260903074553 | 65 | 308 | 2.0 | 7.0 | 0.00 | 0.37 | 0.00 | 92 | 1011.9 |
| 20260903074054 | 65 | 258 | 2.0 | 7.0 | 0.00 | 0.37 | 0.00 | 92 | 1011.9 |
| 20260903073553 | 65 | 196 | 1.0 | 5.0 | 0.00 | 0.37 | 0.00 | 92 | 1012.0 |
| 20260903073055 | 65 | 190 | 1.0 | 5.0 | 0.00 | 0.37 | 0.00 | 92 | 1012.0 |
| 20260903072552 | 65 | 36 | 1.0 | 5.0 | 0.00 | 0.37 | 0.00 | 92 | 1012.0 |
| 20260903072052 | 65 | 224 | 1.0 | 5.0 | 0.00 | 0.37 | 0.00 | 92 | 1012.0 |
| 20260903071552 | 65 | 317 | 0.0 | 7.0 | 0.00 | 0.37 | 0.00 | 92 | 1012.0 |
| 20260903071051 | 65 | 231 | 2.0 | 8.0 | 0.00 | 0.37 | 0.00 | 92 | 1012.0 |
| 20260903070550 | 65 | 193 | 0.0 | 8.0 | 0.00 | 0.37 | 0.00 | 91 | 1012.1 |
| 20260903070055 | 65 | 219 | 1.0 | 7.0 | 0.00 | 0.37 | 0.00 | 91 | 1012.0 |
| 20260903065551 | 65 | 194 | 2.0 | 7.0 | 0.00 | 0.37 | 0.00 | 92 | 1012.1 |
| 20260903065050 | 65 | 234 | 1.0 | 8.0 | 0.00 | 0.37 | 0.00 | 91 | 1012.1 |
| 20260903064550 | 65 | 187 | 1.0 | 9.0 | 0.00 | 0.37 | 0.00 | 92 | 1012.1 |
| 20260903064051 | 65 | 161 | 3.0 | 9.0 | 0.00 | 0.37 | 0.00 | 92 | 1012.0 |
| 20260903063549 | 65 | 213 | 2.0 | 9.0 | 0.00 | 0.37 | 0.00 | 92 | 1012.0 |
| 20260903063112 | 65 | 221 | 3.0 | 10.0 | 0.00 | 0.37 | 0.00 | 92 | 1012.0 |
| 20260903062546 | 65 | 207 | 5.0 | 10.0 | 0.00 | 0.37 | 0.00 | 92 | 1011.8 |
| 20260903062046 | 65 | 156 | 3.0 | 7.0 | 0.00 | 0.37 | 0.00 | 92 | 1011.9 |
| 20260903061546 | 65 | 206 | 1.0 | 7.0 | 0.00 | 0.37 | 0.00 | 92 | 1011.9 |
| 20260903061045 | 65 | 192 | 2.0 | 7.0 | 0.00 | 0.37 | 0.00 | 92 | 1011.9 |
| 20260903060545 | 65 | 227 | 2.0 | 7.0 | 0.00 | 0.37 | 0.00 | 92 | 1012.0 |
| 20260903060045 | 65 | 200 | 3.0 | 10.0 | 0.00 | 0.37 | 0.00 | 92 | 1011.9 |
| 20260903055545 | 65 | 10 | 2.0 | 12.0 | 0.00 | 0.37 | 0.00 | 92 | 1011.9 |
| 20260903055044 | 65 | 215 | 2.0 | 11.0 | 0.00 | 0.37 | 0.00 | 91 | 1011.8 |
| 20260903054545 | 65 | 142 | 1.0 | 8.0 | 0.00 | 0.37 | 0.00 | 92 | 1011.7 |
| 20260903054044 | 65 | 192 | 1.0 | 10.0 | 0.00 | 0.37 | 0.00 | 91 | 1011.7 |
| 20260903053546 | 65 | 209 | 3.0 | 14.0 | 0.00 | 0.37 | 0.00 | 92 | 1011.7 |
| 20260903053043 | 65 | 186 | 6.0 | 14.0 | 0.00 | 0.37 | 0.00 | 92 | 1011.8 |
| 20260903052543 | 65 | 200 | 4.0 | 13.0 | 0.00 | 0.37 | 0.00 | 92 | 1011.7 |
| 20260903052043 | 65 | 204 | 3.0 | 15.0 | 0.00 | 0.37 | 0.00 | 91 | 1011.6 |
| 20260903051545 | 65 | 202 | 4.0 | 15.0 | 0.00 | 0.37 | 0.00 | 91 | 1011.6 |
| 20260903051041 | 65 | 183 | 6.0 | 12.0 | 0.00 | 0.37 | 0.00 | 91 | 1011.5 |
| 20260903050540 | 65 | 198 | 4.0 | 14.0 | 0.00 | 0.37 | 0.00 | 91 | 1011.7 |
| 20260903050100 | 65 | 236 | 5.0 | 15.0 | 0.00 | 0.37 | 0.00 | 91 | 1011.9 |
| 20260903045540 | 65 | 252 | 5.0 | 13.0 | 0.00 | 0.37 | 0.00 | 91 | 1012.0 |
| 20260903045039 | 65 | 159 | 5.0 | 13.0 | 0.00 | 0.37 | 0.00 | 91 | 1012.1 |
| 20260903044539 | 65 | 192 | 6.0 | 14.0 | 0.00 | 0.37 | 0.00 | 92 | 1012.2 |
| 20260903044038 | 65 | 190 | 5.0 | 14.0 | 0.00 | 0.37 | 0.00 | 92 | 1012.2 |
| 20260903043539 | 64 | 218 | 4.0 | 14.0 | 0.00 | 0.37 | 0.00 | 92 | 1012.4 |
| 20260903043037 | 64 | 209 | 4.0 | 14.0 | 0.00 | 0.37 | 0.00 | 92 | 1012.4 |
| 20260903042537 | 64 | 203 | 5.0 | 14.0 | 0.01 | 0.37 | 0.00 | 92 | 1012.5 |
| 20260903042036 | 64 | 238 | 6.0 | 15.0 | 0.01 | 0.37 | 0.00 | 92 | 1012.7 |
| 20260903041535 | 64 | 234 | 6.0 | 15.0 | 0.01 | 0.37 | 0.00 | 92 | 1012.6 |
| 20260903041033 | 64 | 207 | 5.0 | 15.0 | 0.02 | 0.37 | 0.00 | 92 | 1012.5 |
| 20260903040532 | 64 | 194 | 1.0 | 9.0 | 0.02 | 0.37 | 0.00 | 91 | 1012.1 |
| 20260903040032 | 64 | 156 | 4.0 | 9.0 | 0.04 | 0.37 | 0.00 | 91 | 1011.8 |
| 20260903035530 | 64 | 150 | 2.0 | 12.0 | 0.04 | 0.37 | 0.37 | 91 | 1011.8 |
| 20260903035030 | 64 | 186 | 6.0 | 15.0 | 0.06 | 0.37 | 0.37 | 91 | 1011.8 |
| 20260903034531 | 64 | 196 | 4.0 | 15.0 | 0.06 | 0.37 | 0.37 | 91 | 1011.9 |
| 20260903034029 | 64 | 220 | 8.0 | 15.0 | 0.07 | 0.37 | 0.37 | 91 | 1012.2 |
| 20260903033533 | 65 | 187 | 5.0 | 19.0 | 0.08 | 0.37 | 0.37 | 91 | 1012.4 |
| 20260903033030 | 65 | 198 | 9.0 | 19.0 | 0.08 | 0.37 | 0.37 | 91 | 1012.4 |
| 20260903032528 | 65 | 208 | 6.0 | 10.0 | 0.08 | 0.36 | 0.36 | 91 | 1012.5 |
| 20260903032027 | 65 | 192 | 3.0 | 10.0 | 0.08 | 0.36 | 0.36 | 91 | 1012.9 |
| 20260903031528 | 65 | 150 | 4.0 | 17.0 | 0.09 | 0.36 | 0.36 | 91 | 1012.7 |
| 20260903031028 | 65 | 179 | 10.0 | 17.0 | 0.09 | 0.35 | 0.35 | 91 | 1012.2 |
| 20260903030527 | 65 | 183 | 8.0 | 23.0 | 0.09 | 0.34 | 0.34 | 91 | 1012.2 |
| 20260903030029 | 65 | 142 | 9.0 | 23.0 | 0.08 | 0.33 | 0.33 | 91 | 1012.2 |
| 20260903025526 | 65 | 175 | 3.0 | 17.0 | 0.09 | 0.33 | 0.33 | 91 | 1012.8 |
| 20260903025026 | 65 | 122 | 4.0 | 17.0 | 0.07 | 0.31 | 0.31 | 91 | 1012.7 |
| 20260903024526 | 65 | 149 | 7.0 | 16.0 | 0.08 | 0.31 | 0.31 | 91 | 1012.9 |
| 20260903024025 | 65 | 196 | 6.0 | 15.0 | 0.08 | 0.30 | 0.30 | 91 | 1013.1 |
| 20260903023525 | 65 | 213 | 7.0 | 16.0 | 0.07 | 0.28 | 0.28 | 91 | 1013.0 |
| 20260903023027 | 65 | 186 | 7.0 | 16.0 | 0.08 | 0.28 | 0.28 | 91 | 1013.1 |
| 20260903022526 | 65 | 192 | 4.0 | 9.0 | 0.07 | 0.28 | 0.28 | 91 | 1013.1 |
| 20260903022025 | 65 | 136 | 5.0 | 10.0 | 0.07 | 0.28 | 0.28 | 91 | 1013.0 |
| 20260903021529 | 65 | 170 | 3.0 | 11.0 | 0.06 | 0.27 | 0.27 | 91 | 1013.1 |
| 20260903021025 | 65 | 191 | 2.0 | 10.0 | 0.05 | 0.26 | 0.26 | 91 | 1013.2 |
| 20260903020525 | 65 | 182 | 3.0 | 10.0 | 0.04 | 0.25 | 0.25 | 90 | 1013.4 |
| 20260903020024 | 65 | 192 | 4.0 | 10.0 | 0.04 | 0.25 | 0.25 | 90 | 1013.3 |
| 20260903015524 | 66 | 186 | 5.0 | 9.0 | 0.03 | 0.24 | 0.24 | 90 | 1013.4 |
| 20260903015023 | 66 | 174 | 3.0 | 11.0 | 0.03 | 0.24 | 0.24 | 89 | 1013.6 |
| 20260903014523 | 66 | 140 | 5.0 | 11.0 | 0.02 | 0.23 | 0.23 | 89 | 1013.7 |
| 20260903014023 | 66 | 173 | 4.0 | 10.0 | 0.01 | 0.22 | 0.22 | 88 | 1014.0 |
| 20260903013522 | 66 | 194 | 4.0 | 10.0 | 0.01 | 0.22 | 0.22 | 87 | 1014.2 |
| 20260903013022 | 66 | 161 | 4.0 | 10.0 | 0.00 | 0.21 | 0.21 | 87 | 1014.3 |
| 20260903012525 | 67 | 200 | 4.0 | 8.0 | 0.00 | 0.21 | 0.21 | 87 | 1014.5 |
| 20260903012025 | 67 | 207 | 4.0 | 8.0 | 0.00 | 0.21 | 0.21 | 87 | 1014.9 |
| 20260903011522 | 67 | 165 | 3.0 | 9.0 | 0.00 | 0.21 | 0.21 | 87 | 1014.5 |
| 20260903011024 | 67 | 175 | 3.0 | 11.0 | 0.00 | 0.21 | 0.21 | 87 | 1014.4 |
| 20260903010521 | 67 | 195 | 4.0 | 11.0 | 0.00 | 0.21 | 0.21 | 87 | 1014.0 |
| 20260903010028 | 67 | 205 | 6.0 | 11.0 | 0.00 | 0.21 | 0.21 | 87 | 1014.0 |
| 20260903005522 | 67 | 194 | 4.0 | 11.0 | 0.00 | 0.21 | 0.21 | 86 | 1014.1 |
| 20260903005020 | 67 | 146 | 4.0 | 10.0 | 0.00 | 0.21 | 0.21 | 87 | 1014.2 |
| 20260903004521 | 67 | 164 | 4.0 | 13.0 | 0.00 | 0.21 | 0.21 | 86 | 1014.1 |
| 20260903004023 | 67 | 197 | 6.0 | 13.0 | 0.00 | 0.21 | 0.21 | 86 | 1014.2 |
| 20260903003520 | 67 | 121 | 4.0 | 10.0 | 0.00 | 0.21 | 0.21 | 86 | 1013.9 |
| 20260903003021 | 67 | 154 | 3.0 | 11.0 | 0.00 | 0.21 | 0.21 | 86 | 1013.9 |
| 20260903002520 | 67 | 171 | 7.0 | 12.0 | 0.00 | 0.21 | 0.21 | 86 | 1013.9 |
| 20260903002020 | 67 | 221 | 3.0 | 10.0 | 0.00 | 0.21 | 0.21 | 86 | 1014.1 |
| 20260903001520 | 67 | 195 | 5.0 | 10.0 | 0.00 | 0.21 | 0.21 | 86 | 1014.1 |
| 20260903001018 | 67 | 72 | 3.0 | 8.0 | 0.00 | 0.21 | 0.21 | 86 | 1013.8 |
| 20260903000518 | 67 | 199 | 3.0 | 13.0 | 0.00 | 0.21 | 0.21 | 86 | 1013.6 |
| 20260903000020 | 67 | 205 | 5.0 | 15.0 | 0.00 | 0.21 | 0.21 | 86 | 1013.5 |
| 20260902235518 | 68 | 181 | 4.0 | 11.0 | 0.00 | 0.21 | 0.21 | 86 | 1013.4 |
| 20260902235017 | 68 | 175 | 3.0 | 10.0 | 0.00 | 0.21 | 0.21 | 86 | 1013.6 |
| 20260902234519 | 68 | 196 | 4.0 | 10.0 | 0.00 | 0.21 | 0.21 | 86 | 1013.7 |
| 20260902234018 | 68 | 130 | 5.0 | 13.0 | 0.00 | 0.21 | 0.21 | 85 | 1013.5 |
| 20260902233520 | 68 | 200 | 7.0 | 13.0 | 0.00 | 0.21 | 0.21 | 85 | 1013.5 |
| 20260902233018 | 68 | 121 | 6.0 | 13.0 | 0.00 | 0.21 | 0.21 | 85 | 1013.4 |
| 20260902232517 | 68 | 202 | 7.0 | 13.0 | 0.00 | 0.21 | 0.21 | 85 | 1013.3 |
| 20260902232120 | 68 | 215 | 6.0 | 18.0 | 0.00 | 0.21 | 0.21 | 85 | 1013.2 |
| 20260902231534 | 68 | 166 | 4.0 | 14.0 | 0.00 | 0.21 | 0.21 | 86 | 1012.7 |
| 20260902231018 | 68 | 170 | 5.0 | 14.0 | 0.00 | 0.21 | 0.21 | 86 | 1012.6 |
| 20260902230516 | 68 | 180 | 4.0 | 18.0 | 0.00 | 0.21 | 0.21 | 86 | 1012.7 |
| 20260902230027 | 68 | 161 | 9.0 | 18.0 | 0.00 | 0.21 | 0.21 | 85 | 1012.5 |
| 20260902225516 | 68 | 146 | 7.0 | 16.0 | 0.00 | 0.21 | 0.21 | 86 | 1012.6 |
| 20260902225017 | 68 | 118 | 7.0 | 15.0 | 0.00 | 0.21 | 0.21 | 86 | 1012.7 |
| 20260902224514 | 69 | 146 | 5.0 | 11.0 | 0.00 | 0.21 | 0.21 | 86 | 1013.3 |
| 20260902224016 | 69 | 129 | 4.0 | 8.0 | 0.00 | 0.21 | 0.21 | 86 | 1013.5 |
| 20260902223511 | 69 | 142 | 3.0 | 9.0 | 0.00 | 0.21 | 0.21 | 86 | 1013.7 |
| 20260902223011 | 69 | 142 | 3.0 | 9.0 | 0.00 | 0.21 | 0.21 | 86 | 1014.0 |
| 20260902222510 | 69 | 134 | 3.0 | 7.0 | 0.00 | 0.21 | 0.21 | 85 | 1014.2 |
| 20260902222011 | 70 | 136 | 1.0 | 6.0 | 0.00 | 0.21 | 0.21 | 85 | 1014.4 |
| 20260902221517 | 70 | 155 | 2.0 | 5.0 | 0.00 | 0.21 | 0.21 | 85 | 1014.3 |
| 20260902221009 | 70 | 157 | 0.0 | 6.0 | 0.00 | 0.21 | 0.21 | 85 | 1014.7 |
| 20260902220508 | 70 | 193 | 1.0 | 6.0 | 0.00 | 0.21 | 0.21 | 84 | 1014.6 |
| 20260902220009 | 70 | 169 | 2.0 | 7.0 | 0.00 | 0.21 | 0.21 | 84 | 1014.8 |
| 20260902215510 | 70 | 160 | 2.0 | 8.0 | 0.00 | 0.21 | 0.21 | 84 | 1014.8 |
| 20260902215007 | 71 | 146 | 2.0 | 8.0 | 0.00 | 0.21 | 0.21 | 84 | 1014.8 |
| 20260902214508 | 71 | 144 | 1.0 | 7.0 | 0.00 | 0.21 | 0.21 | 84 | 1014.8 |
| 20260902214008 | 71 | 178 | 2.0 | 7.0 | 0.00 | 0.21 | 0.21 | 83 | 1014.8 |
| 20260902213507 | 71 | 192 | 1.0 | 7.0 | 0.00 | 0.21 | 0.21 | 83 | 1014.8 |
| 20260902213007 | 71 | 163 | 2.0 | 8.0 | 0.00 | 0.21 | 0.21 | 82 | 1014.8 |
| 20260902212507 | 71 | 179 | 3.0 | 8.0 | 0.00 | 0.21 | 0.21 | 82 | 1014.8 |
| 20260902212008 | 71 | 162 | 4.0 | 12.0 | 0.00 | 0.21 | 0.21 | 81 | 1014.9 |
| 20260902211508 | 71 | 189 | 8.0 | 12.0 | 0.00 | 0.21 | 0.21 | 81 | 1014.9 |
| 20260902211009 | 72 | 199 | 1.0 | 7.0 | 0.00 | 0.21 | 0.21 | 82 | 1014.9 |
| 20260902210507 | 72 | 180 | 2.0 | 7.0 | 0.00 | 0.21 | 0.21 | 82 | 1014.9 |
| 20260902210006 | 71 | 179 | 3.0 | 9.0 | 0.00 | 0.21 | 0.21 | 82 | 1014.8 |
| 20260902205605 | 72 | 129 | 4.0 | 9.0 | 0.00 | 0.21 | 0.21 | 82 | 1014.7 |
| 20260902205005 | 72 | 207 | 4.0 | 8.0 | 0.00 | 0.21 | 0.21 | 82 | 1014.9 |
| 20260902204505 | 72 | 197 | 2.0 | 8.0 | 0.00 | 0.21 | 0.21 | 81 | 1014.8 |
| 20260902204004 | 72 | 209 | 3.0 | 9.0 | 0.00 | 0.21 | 0.21 | 82 | 1014.8 |
| 20260902203504 | 72 | 166 | 4.0 | 10.0 | 0.00 | 0.21 | 0.21 | 82 | 1014.9 |
| 20260902203004 | 71 | 192 | 3.0 | 10.0 | 0.00 | 0.21 | 0.21 | 82 | 1014.9 |
| 20260902202504 | 71 | 183 | 4.0 | 9.0 | 0.00 | 0.21 | 0.21 | 82 | 1014.8 |
| 20260902202004 | 71 | 120 | 5.0 | 10.0 | 0.00 | 0.21 | 0.21 | 81 | 1014.7 |
| 20260902201502 | 71 | 181 | 5.0 | 10.0 | 0.00 | 0.21 | 0.21 | 82 | 1014.8 |
| 20260902201004 | 71 | 188 | 4.0 | 10.0 | 0.00 | 0.21 | 0.21 | 82 | 1014.8 |
| 20260902200501 | 71 | 199 | 5.0 | 10.0 | 0.00 | 0.21 | 0.21 | 83 | 1014.9 |
| 20260902200113 | 71 | 150 | 3.0 | 8.0 | 0.00 | 0.21 | 0.21 | 84 | 1014.9 |
| 20260902195601 | 70 | 159 | 3.0 | 8.0 | 0.00 | 0.21 | 0.21 | 85 | 1015.0 |
| 20260902195159 | 70 | 169 | 2.0 | 7.0 | 0.00 | 0.21 | 0.21 | 85 | 1014.9 |
| 20260902194601 | 70 | 198 | 3.0 | 10.0 | 0.00 | 0.21 | 0.21 | 84 | 1015.0 |
| 20260902194100 | 70 | 140 | 4.0 | 10.0 | 0.00 | 0.21 | 0.21 | 83 | 1015.0 |
| 20260902193602 | 70 | 157 | 3.0 | 9.0 | 0.00 | 0.21 | 0.21 | 83 | 1014.9 |
| 20260902193058 | 70 | 124 | 4.0 | 9.0 | 0.00 | 0.21 | 0.21 | 83 | 1015.1 |
| 20260902192558 | 70 | 132 | 3.0 | 7.0 | 0.00 | 0.21 | 0.21 | 83 | 1015.2 |
| 20260902192102 | 70 | 152 | 1.0 | 5.0 | 0.00 | 0.21 | 0.21 | 83 | 1015.3 |
| 20260902191557 | 70 | 144 | 1.0 | 7.0 | 0.00 | 0.21 | 0.21 | 84 | 1015.3 |
| 20260902191055 | 70 | 152 | 3.0 | 7.0 | 0.00 | 0.21 | 0.21 | 84 | 1015.2 |
| 20260902190555 | 69 | 192 | 2.0 | 7.0 | 0.00 | 0.21 | 0.21 | 85 | 1015.2 |
| 20260902190056 | 69 | 177 | 2.0 | 7.0 | 0.00 | 0.21 | 0.21 | 85 | 1015.2 |
| 20260902185556 | 69 | 182 | 2.0 | 7.0 | 0.00 | 0.21 | 0.21 | 86 | 1015.3 |
| 20260902185054 | 69 | 204 | 4.0 | 8.0 | 0.00 | 0.21 | 0.21 | 86 | 1015.3 |
| 20260902184559 | 69 | 156 | 1.0 | 6.0 | 0.00 | 0.21 | 0.21 | 86 | 1015.3 |
| 20260902184054 | 69 | 193 | 3.0 | 8.0 | 0.00 | 0.21 | 0.21 | 86 | 1015.4 |
| 20260902183554 | 69 | 190 | 2.0 | 8.0 | 0.00 | 0.21 | 0.21 | 87 | 1015.5 |
| 20260902183054 | 69 | 203 | 1.0 | 9.0 | 0.00 | 0.21 | 0.21 | 88 | 1015.6 |
| 20260902182552 | 70 | 232 | 1.0 | 9.0 | 0.00 | 0.21 | 0.21 | 90 | 1015.8 |
| 20260902182052 | 69 | 209 | 3.0 | 9.0 | 0.00 | 0.21 | 0.21 | 91 | 1015.8 |
| 20260902181550 | 69 | 271 | 0.0 | 6.0 | 0.00 | 0.21 | 0.21 | 92 | 1015.9 |
| 20260902181050 | 69 | 192 | 2.0 | 6.0 | 0.00 | 0.21 | 0.21 | 93 | 1016.0 |
| 20260902180549 | 69 | 241 | 1.0 | 7.0 | 0.00 | 0.21 | 0.21 | 94 | 1015.7 |
| 20260902180108 | 69 | 117 | 1.0 | 6.0 | 0.00 | 0.21 | 0.21 | 1015.6 | |
| 20260902175550 | 69 | 150 | 3.0 | 16.0 | 0.00 | 0.21 | 0.21 | 95 | 1015.3 |
| 20260902175048 | 68 | 204 | 6.0 | 10.0 | 0.00 | 0.21 | 0.21 | 95 | 1015.4 |
| 20260902174546 | 68 | 198 | 1.0 | 12.0 | 0.01 | 0.21 | 0.21 | 95 | 1015.5 |
| 20260902174050 | 68 | 203 | 6.0 | 12.0 | 0.02 | 0.21 | 0.21 | 95 | 1015.8 |
| 20260902173545 | 68 | 291 | 1.0 | 12.0 | 0.04 | 0.21 | 0.21 | 95 | 1015.5 |
| 20260902173044 | 68 | 150 | 5.0 | 12.0 | 0.05 | 0.21 | 0.21 | 95 | 1015.1 |
| 20260902172545 | 67 | 178 | 5.0 | 9.0 | 0.06 | 0.21 | 0.21 | 95 | 1014.9 |
| 20260902172043 | 67 | 339 | 2.0 | 6.0 | 0.07 | 0.21 | 0.21 | 95 | 1015.0 |
| 20260902171542 | 67 | 296 | 1.0 | 11.0 | 0.09 | 0.21 | 0.21 | 95 | 1015.5 |
| 20260902171042 | 67 | 297 | 7.0 | 11.0 | 0.10 | 0.21 | 0.21 | 95 | 1015.2 |
| 20260902170541 | 67 | 306 | 7.0 | 12.0 | 0.11 | 0.21 | 0.21 | 95 | 1015.0 |
| 20260902170041 | 66 | 331 | 3.0 | 12.0 | 0.12 | 0.21 | 0.21 | 95 | 1014.4 |
| 20260902165540 | 66 | 209 | 4.0 | 11.0 | 0.13 | 0.21 | 0.21 | 95 | 1014.2 |
| 20260902165038 | 67 | 160 | 3.0 | 10.0 | 0.14 | 0.20 | 0.20 | 95 | 1014.7 |
| 20260902164537 | 66 | 186 | 2.0 | 16.0 | 0.15 | 0.20 | 0.20 | 95 | 1015.2 |
| 20260902164036 | 66 | 199 | 5.0 | 16.0 | 0.16 | 0.19 | 0.19 | 95 | 1015.3 |
| 20260902163536 | 66 | 140 | 1.0 | 22.0 | 0.14 | 0.17 | 0.17 | 96 | 1015.4 |
| 20260902163036 | 66 | 162 | 7.0 | 22.0 | 0.13 | 0.15 | 0.15 | 96 | 1015.4 |
| 20260902162535 | 66 | 207 | 11.0 | 23.0 | 0.13 | 0.15 | 0.15 | 96 | 1015.5 |
| 20260902162036 | 66 | 179 | 11.0 | 20.0 | 0.12 | 0.14 | 0.14 | 96 | 1015.5 |
| 20260902161547 | 67 | 138 | 7.0 | 18.0 | 0.11 | 0.12 | 0.12 | 96 | 1015.7 |
| 20260902161034 | 67 | 203 | 8.0 | 18.0 | 0.10 | 0.11 | 0.11 | 96 | 1015.9 |
| 20260902160533 | 67 | 185 | 9.0 | 17.0 | 0.10 | 0.10 | 0.10 | 96 | 1016.4 |
| 20260902160033 | 67 | 205 | 7.0 | 15.0 | 0.09 | 0.09 | 0.09 | 96 | 1016.8 |
| 20260902155533 | 67 | 198 | 4.0 | 9.0 | 0.07 | 0.07 | 0.07 | 96 | 1016.8 |
| 20260902155033 | 67 | 191 | 1.0 | 13.0 | 0.06 | 0.06 | 0.06 | 96 | 1017.0 |
| 20260902154534 | 67 | 229 | 5.0 | 13.0 | 0.05 | 0.05 | 0.05 | 96 | 1016.8 |
| 20260902154031 | 67 | 194 | 3.0 | 10.0 | 0.03 | 0.03 | 0.03 | 96 | 1016.8 |
| 20260902153531 | 67 | 200 | 2.0 | 10.0 | 0.03 | 0.03 | 0.03 | 96 | 1016.8 |
| 20260902153030 | 66 | 195 | 0.0 | 3.0 | 0.02 | 0.02 | 0.02 | 96 | 1016.6 |
| 20260902152528 | 65 | 111 | 0.0 | 2.0 | 0.02 | 0.02 | 0.02 | 96 | 1016.5 |